Regional Weather Roundup
Issued by NWS

Home | Current Version | Previous Version | Graphics & Text | Print | Product List | Glossary Off
Versions: 1 2 3 4 5 6 7 8 9 10 11 12 13 14 15 16 17 18 19 20 21 22 23 24 25 26 27

000
ASUS45 KBOU 250707
RWRCO

WEATHER ROUNDUP FOR COLORADO
NATIONAL WEATHER SERVICE DENVER/BOULDER CO
100 AM MDT THU AUG 25 2016

NOTE: "FAIR" INDICATES FEW OR NO CLOUDS BELOW 12000 FEET WITH NO
SIGNIFICANT WEATHER AND/OR OBSTRUCTIONS TO VISIBILITY.

COZ001>005-013-030-031-250800-
...NORTHWEST COLORADO...

CITY           SKY/WX    TMP DP  RH WIND       PRES   REMARKS
CRAIG          FAIR      49  38  65 SE3       30.20S
HAYDEN         FAIR      54  32  43 SE5       30.22S
MEEKER         FAIR      52  43  71 NE6       30.23S
MOUNT WERNER   NOT AVBL
STEAMBOAT SPGS FAIR      50  37  60 CALM      30.24R
WALDEN         FAIR      39  34  81 CALM      30.34R
$$

COZ006>008-011-250800-
...WEST CENTRAL VALLEYS...

CITY           SKY/WX    TMP DP  RH WIND       PRES   REMARKS
GRAND JUNCTION CLOUDY    65  50  58 NE8       30.18R
MONTROSE       FAIR      57  47  69 SE10      30.24F
EAGLE          MOCLDY    55  36  47 CALM      30.27R
RIFLE          FAIR      57  50  77 SW3       30.20R
DELTA          FAIR      62  49  62 CALM      30.21R
NUCLA          FAIR      57  41  54 E9        30.26S
$$

COZ017>023-064>068-250800-
...SOUTHWEST COLORADO...

CITY           SKY/WX    TMP DP  RH WIND       PRES   REMARKS
DURANGO        FAIR      51  46  83 N7        30.29S
CORTEZ         FAIR      56  49  77 CALM      30.23R
PAGOSA SPRINGS FAIR      47  46  98 CALM      30.36S
TELLURIDE      FAIR      47  41  77 SE7       30.44S
WOLF CREEK PAS FAIR      37  37 100 S5        30.60S
$$

COZ009-010-012-014-032>034-037-058>063-250800-
...CENTRAL COLORADO...

CITY           SKY/WX    TMP DP  RH WIND       PRES   REMARKS
ASPEN          FAIR      47  36  65 S6        30.32S
BUENA VISTA    FAIR      44  42  94 CALM      30.39R
COPPER MTN     FAIR      41  30  65 W8        30.56S
BERTHOUD PASS  FAIR      32  19  59 W9        30.56S WCI  24
COTTONWOOD PAS FAIR      45  41  87 W3        30.47R
GUNNISON       MOCLDY    52  39  62 N7        30.38R
KREMMLING      FAIR      43  37  81 CALM      30.32R
LEADVILLE      MOCLDY    42  40  92 SE5       30.46R
MONARCH PASS   FAIR      37  32  81 SW7       30.67R
SALIDA         FAIR      47  45  91 SW5       30.44S
SUNLIGHT       FAIR      45  34  65 NE10G17   30.52S
WILKERSON PASS FAIR      37  36  93 W7        30.55F
$$

COZ069>075-250800-
...SAN LUIS VALLEY/SANGRE DE CRISTO MOUNTAINS...

CITY           SKY/WX    TMP DP  RH WIND       PRES   REMARKS
ALAMOSA        FAIR      46  43  89 N6        30.35R
LA VETA PASS   CLOUDY    43  39  87 NE3       30.48S
SAGUACHE       FAIR      46  43  87 N7        30.38R
$$

COZ035-036-038>040-250800-
...NORTHERN COLORADO FRONT RANGE...

CITY           SKY/WX    TMP DP  RH WIND       PRES   REMARKS
DENVER INTL AP FAIR      50  45  83 S9        30.23F
DMNS CITY PARK   N/A     53  53  99 E2G9      30.23S
AURORA         PTCLDY    50  42  75 SE7       30.25S
FRONT RANGE AP NOT AVBL
ERIE MUNI ARPT FAIR      51  49  94 CALM      30.22S
BOULDER MUN AP FAIR      54  52  94 CALM      30.22S
CENTENNIAL     FAIR      51  43  74 S5        30.25F
BROOMFIELD     FAIR      54  52  94 CALM      30.24S
FORT COLLINS   FAIR      54  48  82 CALM      30.23R
LONGMONT       FAIR      52  50  92 CALM      30.24S
$$

COZ041-046-047-076>085-087-088-250800-
...PIKES PEAK/PALMER DIVIDE AND SOUTHERN FOOTHILLS...

CITY           SKY/WX    TMP DP  RH WIND       PRES   REMARKS
COLO. SPRINGS  MOCLDY    54  35  48 CALM      30.32S
A. F. ACADEMY  FAIR      49  42  77 CALM      30.31F
SCHRIEVER AFB  NOT AVBL
ELLICOTT       NOT AVBL
FALCON         FAIR      48  34  58 CALM      30.34S
FORT CARSON    NOT AVBL
LIMON          FAIR      44  34  67 N9        30.26S
MONUMENT HILL  FAIR      43  34  70 S10       30.33F
TRINIDAD       CLOUDY    56  52  86 SW7       30.28S
$$

COZ042>045-048>051-090-091-250800-
...NORTHEAST COLORADO...

CITY           SKY/WX    TMP DP  RH WIND       PRES   REMARKS
GREELEY ARPT   FAIR      52  48  87 E6        30.23R
AKRON          FAIR      53  38  56 S10       30.24S
BURLINGTON     FAIR      54  44  69 CALM      30.21S
WRAY           FAIR      52  41  66 CALM      30.20S
STERLING       FAIR      52  41  66 SW3       30.21S
HOLYOKE        FAIR      54  46  76 CALM      30.21S
FORT MORGAN    FAIR      51  39  65 E6        30.24R
$$

COZ086-089-092>099-250800-
...SOUTHEAST COLORADO...

CITY           SKY/WX    TMP DP  RH WIND       PRES   REMARKS
PUEBLO         FAIR      57  51  80 CALM      30.23F
LA JUNTA       FAIR      62  44  51 N7        30.20F
LAMAR          LGT RAIN  61  46  57 NE3       30.16S
SPRINGFIELD      N/A     59  58  96 NE5       30.20R
$$




USA.gov is the U.S. government's official web portal to all federal, state and local government web resources and services.